This demonstration page uses our WeatherBlox Daily Observations layout. Learn more.

Left ArrowRight Arrow

44.8408, -93.29828

Hourly Observations for October 22, 2021

Temp ( °F °C ) Dew Point ( °F °C ) Humidity (%) Winds ( mph kmh ) Pressure ( in mb ) Visibility ( mi km ) Precip ( " mm )
12:53 am 00:53 Mostly Clear 36 2.2 31 -0.6 82 82 NNW 3 6 30.14 1021 10 16 N/A
1:53 am 01:53 Mostly Clear 37 2.8 30 -1.1 76 76 N N/A 30.13 1020 10 16 N/A
2:53 am 02:53 Mostly Clear 37 2.8 30 -1.1 76 76 N N/A 30.13 1020 10 16 N/A
3:53 am 03:53 Mostly Clear 34 1.1 29 -1.7 82 82 NW 3 6 30.13 1020 10 16 N/A
4:53 am 04:53 Partly Cloudy 34 1.1 31 -0.6 89 89 NW 3 6 30.13 1020 10 16 N/A
5:53 am 05:53 Partly Cloudy 35 1.7 30 -1.1 82 82 N N/A 30.13 1020 10 16 N/A
6:53 am 06:53 Cloudy 36 2.2 31 -0.6 82 82 N N/A 30.13 1020 10 16 N/A
7:53 am 07:53 Cloudy 35 1.7 30 -1.1 82 82 NW 5 7 30.13 1020 10 16 N/A
8:53 am 08:53 Cloudy 37 2.8 31 -0.6 79 79 NNE 3 6 30.13 1020 10 16 N/A
9:53 am 09:53 Cloudy 39 3.9 32 undefined 76 76 N N/A 30.14 1021 10 16 N/A
10:53 am 10:53 Cloudy 41 5 32 undefined 70 70 N N/A 30.14 1021 10 16 N/A
11:53 am 11:53 Cloudy 43 6.1 32 undefined 65 65 N N/A 30.13 1020 10 16 N/A
12:53 pm 12:53 Mostly Cloudy 48 8.9 30 -1.1 50 50 N 5 7 30.11 1020 10 16 N/A
1:53 pm 13:53 Partly Cloudy 49 9.4 29 -1.7 46 46 N 6 9 30.09 1019 10 16 N/A
2:53 pm 14:53 Partly Cloudy 50 10 28 -2.2 43 43 NNE 6 9 30.06 1018 10 16 N/A
3:53 pm 15:53 Partly Cloudy 50 10 25 -3.9 38 38 VRB 3 6 30.06 1018 10 16 N/A
4:53 pm 16:53 Partly Cloudy 49 9.4 26 -3.3 41 41 N 7 11 30.06 1018 10 16 N/A
5:53 pm 17:53 Partly Cloudy 48 8.9 29 -1.7 48 48 N 6 9 30.06 1018 10 16 N/A
6:53 pm 18:53 Partly Cloudy 45 7.2 30 -1.1 56 56 NNE 5 7 30.07 1018 10 16 N/A
7:53 pm 19:53 Mostly Cloudy 44 6.7 31 -0.6 60 60 NNE 6 9 30.08 1019 10 16 N/A
8:53 pm 20:53 Partly Cloudy 44 6.7 32 undefined 63 63 N N/A 30.08 1019 10 16 N/A
9:53 pm 21:53 Partly Cloudy 41 5 31 -0.6 67 67 NNE 10 17 30.10 1019 10 16 N/A
10:53 pm 22:53 Mostly Clear 38 3.3 29 -1.7 70 70 NNE 6 9 30.10 1019 10 16 N/A
11:53 pm 23:53 Mostly Clear 37 2.8 28 -2.2 70 70 NNE 3 6 30.09 1019 10 16 N/A

Powered by AerisWeather